Location: Unspecified
(41.8104°N, 0.0000°E)
Time: 01:08:07
(UTC+00:00)

IRIDIUM 130 - Visible Passes

Search period start: 04 April 2026 00:00
Search period end: 14 April 2026 00:00
Orbit: 776 x 779 km, 86.4° (Epoch: 29 March)

Date Brightness Start Highest point End Pass type
(mag) Time Alt. Az. Time Alt. Az. Time Alt. Az.
4 Apr ? 21:07:43 10° NNE 21:08:42 13° NE 21:08:42 13° NE visible
4 Apr ? 22:47:22 10° NNW 22:49:11 21° NNW 22:49:11 21° NNW visible
5 Apr ? 22:13:43 10° N 22:15:56 26° N 22:15:56 26° N visible
6 Apr ? 21:40:19 10° N 21:42:43 26° NNE 21:42:43 26° NNE visible
6 Apr ? 23:22:00 10° NW 23:23:12 14° NW 23:23:12 14° NW visible
7 Apr ? 21:07:16 10° NNE 21:09:29 20° NE 21:09:29 20° NE visible
7 Apr ? 22:47:43 10° NNW 22:50:00 23° NW 22:50:00 23° NW visible
8 Apr ? 20:34:52 10° NE 20:36:17 13° NE 20:36:17 13° NE visible
8 Apr ? 22:13:52 10° N 22:16:46 33° NNW 22:16:46 33° NNW visible
9 Apr ? 21:40:19 10° N 21:43:35 38° NNE 21:43:35 38° NNE visible
9 Apr ? 23:23:03 10° NW 23:24:04 12° WNW 23:24:04 12° WNW visible
10 Apr ? 21:07:03 10° NNE 21:10:24 31° NE 21:10:24 31° NE visible
10 Apr ? 22:48:12 10° NNW 22:50:53 22° NW 22:50:53 22° NW visible
11 Apr ? 20:34:11 10° NNE 20:37:12 20° ENE 20:37:12 20° ENE visible
11 Apr ? 22:14:08 10° NNW 22:17:41 36° NW 22:17:41 36° NW visible
12 Apr ? 20:02:24 10° NE 20:04:03 12° ENE 20:04:03 12° ENE visible
12 Apr ? 21:40:24 10° N 21:44:32 56° NNW 21:44:32 56° NNW visible
13 Apr ? 21:06:57 10° N 21:11:23 50° NE 21:11:23 50° NE visible
13 Apr ? 22:48:57 10° NW 22:51:53 17° WNW 22:51:53 17° WNW visible
